Regional Weather Roundup
Issued by NWS Northern Indiana

Home | Current Version | Previous Version | Text Only | Print | Product List | Glossary On
Versions: 1 2 3 4 5 6 7 8 9 10 11 12 13 14 15 16 17 18 19 20 21 22 23 24 25 26 27 28 29 30 31 32 33 34 35 36 37 38 39 40 41 42 43 44 45 46 47 48 49 50
000
ASUS43 KIWX 280810
RWRIWX

KIWX WEATHER ROUNDUP
NATIONAL WEATHER SERVICE NORTHERN INDIANA
300 AM EST SUN DEC 28 2014

NOTE: "FAIR" INDICATES FEW OR NO CLOUDS BELOW 12,000 FEET WITH NO
SIGNIFICANT WEATHER AND/OR OBSTRUCTIONS TO VISIBILITY.

* THESE STATIONS ARE NOT UNDER NWS QUALITY CONTROL. THEY ALSO MAY NOT
  REPORT WEATHER SUCH AS PRECIPITATION OR FOG.

INZ001>027-280900-
NORTHERN INDIANA

CITY           SKY/WX    TMP DP  RH WIND       PRES   REMARKS
GARY*          CLOUDY    32  22  66 W8        30.13R WCI  25
VALPARAISO     CLOUDY    32  25  75 W9        30.11R WCI  24
MICHIGAN CITY* CLOUDY    32  23  69 W6        30.11R WCI  26
LAPORTE*       CLOUDY    35  28  78 NW5       30.11R WCI  31
KNOX*          CLOUDY    33  26  78 W9        30.10R WCI  25
SOUTH BEND     NOT AVBL
GOSHEN         CLOUDY    35  28  75 NW10      30.07R WCI  27
MONTICELLO*    CLOUDY    32  28  86 NW10      30.12R WCI  23
LOGANSPORT*    CLOUDY    32  28  86 W8        30.11R WCI  25
ROCHESTER*     CLOUDY    34  32  93 W8        30.10R WCI  27
WARSAW*        CLOUDY    32  30  93 W7        30.08R WCI  26
ANGOLA*        CLOUDY    34  28  80 NW8       30.04R WCI  27
FORT WAYNE     CLOUDY    34  28  79 NW9       30.08R WCI  27
HUNTINGTON*    CLOUDY    32  27  80 NW6       30.08R WCI  27
PERU/GRISSOM   CLOUDY    32  32 100 W8        30.09R WCI  25
MARION*        CLOUDY    32  29  89 NW8       30.09R WCI  25

$$
INZ028>050-280900-
CENTRAL INDIANA

CITY           SKY/WX    TMP DP  RH WIND       PRES   REMARKS
LAFAYETTE      CLOUDY    31  26  82 NW8       30.13R WCI  23
KOKOMO*        CLOUDY    32  27  80 NW13G21   30.09R WCI  22
MUNCIE*        CLOUDY    33  30  88 NW9       30.08R WCI  25
INDIANAPOLIS   DRIZZLE   31  29  92 NW13      30.10S WCI  21

$$
MIZ043>046-050>051-056>058-064>065-071>073-077>080-280900-
SOUTHWEST LOWER MICHIGAN

CITY           SKY/WX    TMP DP  RH WIND       PRES   REMARKS
BATTLE CREEK   CLOUDY    35  29  78 W7        30.03R WCI  29
BENTON HARBOR  CLOUDY    34  28  79 W9        30.09R WCI  27
COLDWATER*     CLOUDY    33  30  86 W8        30.04R WCI  27
HILLSDALE*     CLOUDY    35  30  83 W10       30.02R WCI  27
HOLLAND        CLOUDY    36  28  73 W13G18    30.07R
GRAND RAPIDS   CLOUDY    33  31  92 NW9       30.04R WCI  25
KALAMAZOO      CLOUDY    35  28  75 W8        30.05R WCI  29
STURGIS*       CLOUDY    34  28  80 W10       30.05R WCI  26
THREE RIVERS*  CLOUDY    35  29  79 W9        30.06R WCI  27

$$
OHZ001>008-015>018-024>025-280900-
NORTHWEST OHIO

CITY           SKY/WX    TMP DP  RH WIND       PRES   REMARKS
WAUSEON*       CLOUDY    36  32  87 W10       30.03R
DEFIANCE       CLOUDY    36  30  79 NW16      30.06R
FINDLAY        CLOUDY    36  33  89 W9        30.03R
TOLEDO EXPRESS CLOUDY    35  30  82 W10G17    30.03R WCI  27
TOLEDO METCALF CLOUDY    37  31  78 W9        30.03R
LIMA           CLOUDY    36  33  89 W12       30.04R

$$
AND FOR LAKE MICHIGAN COASTAL AND OPEN LAKE BUOY OBSERVATIONS

STATION/POSITION TEMP    WIND        PRES    VSBY  WAVE
                 AIR SEA DIR/SP/G                  HT/PER
                 (F)     (DEG/KT/KT) (MB)    (MI)  (FT/S)
CALUMET HARBOR    31     280/  9/ 13 1019.0R
MICHIGAN CITY     33     250/ 15/ 17   N/A
SAINT JOSEPH      36     270/ 13/ 16 1019.0R

$$
&&



USA.gov is the U.S. government's official web portal to all federal, state and local government web resources and services.